Orbital Elements at Epoch 2459200.5 (2020-Dec-17.0) TDB
Reference: JPL 10 (heliocentric ecliptic J2000)
Element | Value | Uncertainty (1-sigma) | Units |
e | .08981850045931543 | 4.9263e-08 | |
a | 2.423593276691642 | 1.6808e-08 | au |
q | 2.20590976285592 | 1.1731e-07 | au |
i | 5.844151373926287 | 5.776e-06 | deg |
node | 341.3104216404907 | 5.2344e-05 | deg |
peri | 57.35923837398531 | 6.3505e-05 | deg |
M | 247.7831778867401 | 3.7249e-05 | deg |
tp | 2459630.079452694094 (2022-Feb-19.57945269) | 0.00014497 | TDB |
period | 1378.123173135198 3.77 | 1.4336e-05 3.925e-08 | d yr |
n | .2612248360797884 | 2.7174e-09 | deg/d |
Q | 2.641276790527364 | 1.8317e-08 | au |
|
| | Orbit Determination Parameters
Additional Information
|